Weather History for KMCD - October, 2012

Change the Weather History Date:

Friday, October 12, 2012

  Actual Average Record
Temperature  
Mean Temperature 38 °F -  
Max Temperature 45 °F 53 °F 69 °F (1998)
Min Temperature 30 °F 41 °F 29 °F (1993)
Degree Days  
Heating Degree Days 28    
Moisture  
Dew Point 30 °F    
Average Humidity 72    
Maximum Humidity 96    
Minimum Humidity 47    
Precipitation  
Precipitation 0.02 in - - ()
Sea Level Pressure  
Sea Level Pressure 30.32 in    
Wind  
Wind Speed 7 mph (West)    
Max Wind Speed 14 mph    
Max Gust Speed 20 mph    
Visibility 10 miles    
Events Rain , Snow    
Averages and records for this station are not official NWS values.
T = Trace of Precipitation, MM = Missing Value Source: NWS Daily Summary

Daily Weather History Graph

Daily Weather History Graph

Search for Another Location

Airport or City:

Trip Planner

Search our weather history database for the weather conditions in past years. The results will help you decide how hot, cold, wet, or windy it might be!

Date:

Astronomy

Oct. 12, 2012 Rise Set
Actual Time 7:51 AM EDT 6:57 PM EDT
Civil Twilight 7:21 AM EDT 7:27 PM EDT
Nautical Twilight 6:47 AM EDT 8:01 PM EDT
Astronomical Twilight 6:12 AM EDT 8:36 PM EDT
Moon 4:25 AM EDT (10/12) 5:13 PM EDT (10/12)
Length of Visible Light 12h 05m
Length of Day
11h 05m
Waning Crescent, 11% of the Moon is Illuminated
Oct 12
Waning Crescent
Oct 15
New
Oct 21
First Quarter
Oct 29
Full
Nov 6
Last Quarter

Hourly Weather History & Observations

Time (EDT) Temp. Windchill Dew Point Humidity Pressure Visibility Wind Dir Wind Speed Gust Speed Precip Events Conditions
12:15 AM 35.1 °F 28.6 °F 33.1 °F 92% 30.16 in 10.0 mi NNW 8.1 mph - N/A   Overcast
12:34 AM 35.1 °F 28.6 °F 33.1 °F 92% 30.17 in 10.0 mi NNW 8.1 mph - N/A Rain Light Rain
12:54 AM 35.1 °F 29.3 °F 33.3 °F 93% 30.18 in 5.0 mi North 6.9 mph - 0.01 in Snow Light Snow
1:15 AM 34.7 °F 28.8 °F 32.9 °F 93% 30.19 in 7.0 mi NNW 6.9 mph - N/A Rain Light Rain
1:34 AM 34.7 °F 28.8 °F 33.1 °F 94% 30.20 in 10.0 mi NW 6.9 mph - N/A   Overcast
1:54 AM 35.2 °F 28.8 °F 33.4 °F 93% 30.21 in 10.0 mi NW 8.1 mph 17.3 mph N/A   Overcast
2:15 AM 34.7 °F 27.5 °F 32.5 °F 92% 30.22 in 10.0 mi NNW 9.2 mph - N/A   Overcast
2:34 AM 34.9 °F 27.7 °F 32.5 °F 91% 30.23 in 10.0 mi North 9.2 mph 16.1 mph N/A   Overcast
2:54 AM 34.2 °F 28.2 °F 31.8 °F 91% 30.23 in 10.0 mi North 6.9 mph - N/A   Overcast
3:34 AM 33.3 °F 27.1 °F 31.6 °F 94% 30.25 in 10.0 mi NNW 6.9 mph - N/A   Scattered Clouds
3:54 AM 33.8 °F 28.6 °F 31.5 °F 91% 30.25 in 10.0 mi NNW 5.8 mph - N/A   Scattered Clouds
4:14 AM 33.4 °F 28.1 °F 31.6 °F 93% 30.27 in 10.0 mi NNW 5.8 mph - N/A   Mostly Cloudy
4:34 AM 33.6 °F 28.4 °F 32.0 °F 94% 30.27 in 10.0 mi NW 5.8 mph - N/A   Mostly Cloudy
4:54 AM 33.4 °F 28.1 °F 32.0 °F 94% 30.29 in 10.0 mi NNW 5.8 mph - N/A   Overcast
5:14 AM 33.8 °F 28.6 °F 32.0 °F 93% 30.30 in 10.0 mi NNW 5.8 mph - N/A   Overcast
5:34 AM 32.9 °F 27.5 °F 31.1 °F 93% 30.30 in 10.0 mi NNW 5.8 mph - N/A   Scattered Clouds
5:54 AM 33.3 °F 30.2 °F 30.7 °F 90% 30.31 in 10.0 mi NW 3.5 mph - N/A   Clear
6:14 AM 31.6 °F 26.0 °F 29.8 °F 93% 30.32 in 10.0 mi WNW 5.8 mph - N/A   Scattered Clouds
6:34 AM 31.6 °F 28.3 °F 29.5 °F 92% 30.33 in 10.0 mi WNW 3.5 mph - N/A   Clear
6:54 AM 30.4 °F 26.9 °F 28.9 °F 94% 30.33 in 10.0 mi NW 3.5 mph - N/A   Clear
7:14 AM 30.4 °F 25.6 °F 29.1 °F 95% 30.34 in 10.0 mi WNW 4.6 mph - N/A   Clear
7:34 AM 33.6 °F 28.4 °F 32.0 °F 94% 30.35 in 10.0 mi WNW 5.8 mph - N/A   Clear
7:55 AM 34.0 °F 29.8 °F 29.8 °F 85% 30.35 in 10.0 mi WNW 4.6 mph - N/A   Clear
8:34 AM 31.6 °F - 28.9 °F 90% 30.36 in 10.0 mi Calm Calm - N/A   Clear
8:55 AM 32.5 °F 29.3 °F 31.5 °F 96% 30.38 in 10.0 mi WNW 3.5 mph - N/A   Clear
9:14 AM 36.9 °F - 31.5 °F 81% 30.39 in 10.0 mi Calm Calm - N/A   Clear
9:34 AM 37.4 °F - 30.7 °F 77% 30.39 in 10.0 mi Calm Calm - N/A   Clear
10:14 AM 39.4 °F 37.2 °F 29.8 °F 69% 30.41 in 10.0 mi WNW 3.5 mph - N/A   Clear
10:54 AM 40.1 °F 38.0 °F 29.3 °F 65% 30.41 in 10.0 mi West 3.5 mph - N/A   Clear
11:14 AM 41.0 °F 38.0 °F 28.2 °F 60% 30.41 in 10.0 mi West 4.6 mph - N/A   Clear
11:34 AM 42.3 °F 37.9 °F 27.1 °F 55% 30.41 in 10.0 mi West 6.9 mph - N/A   Clear
11:55 AM 41.5 °F 38.6 °F 28.0 °F 59% 30.41 in 10.0 mi WSW 4.6 mph - N/A   Clear
12:14 PM 42.8 °F 40.1 °F 28.2 °F 56% 30.41 in 10.0 mi WNW 4.6 mph - N/A   Clear
12:34 PM 43.0 °F 40.3 °F 29.1 °F 58% 30.41 in 10.0 mi West 4.6 mph - N/A   Scattered Clouds
12:54 PM 43.2 °F 39.0 °F 29.7 °F 59% 30.41 in 10.0 mi West 6.9 mph - N/A   Scattered Clouds
1:14 PM 42.8 °F 40.1 °F 28.4 °F 57% 30.40 in 10.0 mi SSW 4.6 mph - N/A   Mostly Cloudy
1:54 PM 44.4 °F 39.0 °F 27.3 °F 51% 30.39 in 10.0 mi WSW 10.4 mph 16.1 mph 0.01 in   Scattered Clouds
2:34 PM 44.6 °F 38.1 °F 27.5 °F 51% 30.38 in 10.0 mi WSW 13.8 mph 19.6 mph N/A   Overcast
4:14 PM 44.8 °F 40.4 °F 25.3 °F 47% 30.37 in 10.0 mi WSW 8.1 mph 16.1 mph N/A   Scattered Clouds
4:54 PM 45.1 °F 40.8 °F 26.6 °F 48% 30.36 in 10.0 mi WSW 8.1 mph - N/A   Scattered Clouds
5:14 PM 43.5 °F 40.1 °F 26.4 °F 51% 30.36 in 10.0 mi WSW 5.8 mph - N/A   Scattered Clouds
5:34 PM 43.7 °F 39.7 °F 26.8 °F 51% 30.36 in 10.0 mi West 6.9 mph - N/A   Mostly Cloudy
5:54 PM 44.4 °F 39.5 °F 27.0 °F 50% 30.36 in 10.0 mi West 9.2 mph 17.3 mph N/A   Overcast
6:14 PM 44.4 °F 39.5 °F 26.4 °F 49% 30.36 in 10.0 mi WSW 9.2 mph - N/A   Overcast
6:54 PM 42.8 °F 38.0 °F 25.0 °F 49% 30.35 in 10.0 mi WSW 8.1 mph - N/A   Clear
7:14 PM 43.0 °F 40.3 °F 25.0 °F 49% 30.35 in 10.0 mi SW 4.6 mph - N/A   Mostly Cloudy
7:35 PM 43.0 °F 40.3 °F 27.0 °F 53% 30.35 in 10.0 mi SW 4.6 mph - N/A   Mostly Cloudy
7:54 PM 42.8 °F 38.6 °F 26.6 °F 53% 30.34 in 10.0 mi SW 6.9 mph - N/A   Scattered Clouds
8:14 PM 42.8 °F 40.1 °F 26.2 °F 52% 30.34 in 10.0 mi SW 4.6 mph - N/A   Clear
8:35 PM 42.8 °F 39.3 °F 26.6 °F 53% 30.34 in 10.0 mi SW 5.8 mph - N/A   Clear
9:14 PM 42.8 °F 38.0 °F 28.2 °F 56% 30.33 in 10.0 mi SSW 8.1 mph - N/A   Clear
9:35 PM 42.8 °F 39.3 °F 29.1 °F 58% 30.33 in 10.0 mi SSW 5.8 mph - N/A   Clear
10:14 PM 42.6 °F 38.4 °F 30.0 °F 61% 30.32 in 10.0 mi South 6.9 mph - N/A   Clear
10:35 PM 42.8 °F 38.0 °F 29.3 °F 59% 30.32 in 10.0 mi South 8.1 mph - N/A   Clear
10:54 PM 42.8 °F 38.6 °F 30.7 °F 62% 30.32 in 10.0 mi South 6.9 mph - N/A   Clear
11:14 PM 43.0 °F 38.8 °F 30.0 °F 60% 30.32 in 10.0 mi South 6.9 mph - N/A   Clear
11:35 PM 43.0 °F 38.8 °F 30.2 °F 61% 30.32 in 10.0 mi South 6.9 mph - N/A   Clear
11:54 PM 42.8 °F 36.6 °F 31.1 °F 63% 30.31 in 10.0 mi South 11.5 mph 16.1 mph N/A   Clear